Language: 


Des rapports , des résumés tant et plus, au choix de chacun....


Données Historiques de Météogheer
 
Journalier Rapport pour Juin 18, 2018 Unitée:  Métrique    Impériale   Les deux
Suivant Jour »
Journalier Hebdomadaire Mensuel Annuel Sur mesure
  Actuel: Max: Min: Moyenne:
Température: 16.0 °C 16.0 °C 14.6 °C 15.4 °C
Point de rosée: 14.0 °C 14.0 °C 11.0 °C 12.5 °C
Humidité: 89% 89% 74% 81%
Vent: 6.1km/h 13.7km/h 0.0km/h 3.8km/h
Rafales: 12.6km/h 16.3km/h - -
VentSW - - SSW
Pression: 1018.0 hPa 1019.0 hPa 1018.0 hPa -
Pluie: 0.0 mm      
Historical Graphs
 
 
Données tabulaires pour Juin 18, 2018
Heure Température Point de rosée Pression Vent Vent Rafales Humidité Pluie Taux (Horaire) Conditions
00:05 15.5 °C 11.0 °C 1018.0 hPa SSW 13.7 km/h 13.7 km/h 74% 0.0 mm
00:10 15.5 °C 11.0 °C 1018.0 hPa WSW 5.5 km/h 13.7 km/h 74% 0.0 mm
00:20 15.4 °C 11.0 °C 1018.0 hPa SW 6.1 km/h 9.3 km/h 75% 0.0 mm
00:25 15.5 °C 12.0 °C 1019.0 hPa Calm   9.3 km/h 75% 0.0 mm
00:35 15.4 °C 11.0 °C 1019.0 hPa WSW 3.2 km/h 10.5 km/h 76% 0.0 mm
00:40 15.4 °C 11.0 °C 1019.0 hPa SW 9.3 km/h 10.5 km/h 76% 0.0 mm
00:50 15.4 °C 12.0 °C 1019.0 hPa South 5.5 km/h 9.0 km/h 78% 0.0 mm
00:55 15.4 °C 12.0 °C 1019.0 hPa SSW 6.1 km/h 11.6 km/h 78% 0.0 mm
01:05 15.5 °C 12.0 °C 1019.0 hPa South 3.2 km/h 11.6 km/h 78% 0.0 mm
01:10 15.5 °C 12.0 °C 1019.0 hPa SSW 5.8 km/h 10.1 km/h 78% 0.0 mm
01:20 15.4 °C 12.0 °C 1019.0 hPa Calm   7.9 km/h 79% 0.0 mm
01:25 15.4 °C 12.0 °C 1019.0 hPa SSE 5.0 km/h 7.9 km/h 79% 0.0 mm
01:30 15.4 °C 12.0 °C 1019.0 hPa SSW 5.8 km/h 6.9 km/h 79% 0.0 mm
01:35 15.4 °C 12.0 °C 1019.0 hPa Calm   7.9 km/h 79% 0.0 mm
01:40 15.4 °C 12.0 °C 1019.0 hPa SSW 1.8 km/h 7.9 km/h 79% 0.0 mm
01:45 15.3 °C 12.0 °C 1019.0 hPa Calm   6.4 km/h 79% 0.0 mm
01:55 15.0 °C 12.0 °C 1019.0 hPa Calm   6.1 km/h 79% 0.0 mm
02:00 14.8 °C 12.0 °C 1019.0 hPa SSW 4.0 km/h 4.7 km/h 80% 0.0 mm
02:05 14.7 °C 12.0 °C 1019.0 hPa South 2.1 km/h 4.3 km/h 80% 0.0 mm
02:10 14.7 °C 12.0 °C 1019.0 hPa Calm   5.8 km/h 81% 0.0 mm
02:20 14.6 °C 12.0 °C 1019.0 hPa Calm   4.0 km/h 81% 0.0 mm
02:25 14.6 °C 12.0 °C 1018.0 hPa SSW 2.6 km/h 4.0 km/h 81% 0.0 mm
02:30 14.6 °C 12.0 °C 1018.0 hPa Calm   4.0 km/h 81% 0.0 mm
02:35 14.6 °C 12.0 °C 1018.0 hPa Calm   1.4 km/h 81% 0.0 mm
02:40 14.6 °C 12.0 °C 1018.0 hPa SW 1.8 km/h 4.0 km/h 81% 0.0 mm
02:50 14.7 °C 12.0 °C 1018.0 hPa Calm   6.9 km/h 82% 0.0 mm
02:55 14.8 °C 12.0 °C 1018.0 hPa Calm   3.5 km/h 82% 0.0 mm
03:00 14.8 °C 12.0 °C 1018.0 hPa Calm   4.7 km/h 82% 0.0 mm
03:05 14.9 °C 12.0 °C 1018.0 hPa Calm   7.9 km/h 81% 0.0 mm
03:10 15.0 °C 12.0 °C 1018.0 hPa South 4.3 km/h 7.9 km/h 80% 0.0 mm
03:20 15.1 °C 12.0 °C 1018.0 hPa Calm   7.9 km/h 80% 0.0 mm
03:25 15.2 °C 12.0 °C 1018.0 hPa Calm   7.9 km/h 80% 0.0 mm
03:30 15.2 °C 12.0 °C 1018.0 hPa South 6.1 km/h 6.1 km/h 80% 0.0 mm
03:35 15.2 °C 12.0 °C 1018.0 hPa Calm   6.1 km/h 80% 0.0 mm
03:40 15.2 °C 12.0 °C 1018.0 hPa Calm   8.7 km/h 80% 0.0 mm
03:50 15.3 °C 12.0 °C 1018.0 hPa South 6.1 km/h 9.0 km/h 80% 0.0 mm
03:55 15.3 °C 12.0 °C 1018.0 hPa South 9.0 km/h 9.0 km/h 80% 0.0 mm
04:00 15.4 °C 12.0 °C 1018.0 hPa SSW 8.7 km/h 10.5 km/h 80% 0.0 mm
04:05 15.4 °C 12.0 °C 1018.0 hPa SSE 8.7 km/h 10.5 km/h 80% 0.0 mm
04:10 15.5 °C 13.0 °C 1018.0 hPa South 6.4 km/h 9.0 km/h 80% 0.0 mm
04:20 15.5 °C 13.0 °C 1018.0 hPa Calm   10.5 km/h 80% 0.0 mm
04:25 15.6 °C 13.0 °C 1018.0 hPa SSE 6.1 km/h 11.9 km/h 80% 0.0 mm
04:30 15.6 °C 13.0 °C 1018.0 hPa South 5.8 km/h 11.9 km/h 80% 0.0 mm
04:35 15.6 °C 13.0 °C 1018.0 hPa Calm   10.5 km/h 80% 0.0 mm
04:40 15.6 °C 13.0 °C 1018.0 hPa South 6.9 km/h 9.3 km/h 80% 0.0 mm
04:50 15.6 °C 13.0 °C 1018.0 hPa Calm   9.0 km/h 80% 0.0 mm
04:55 15.6 °C 13.0 °C 1018.0 hPa Calm   9.7 km/h 80% 0.0 mm
05:00 15.7 °C 13.0 °C 1018.0 hPa South 4.7 km/h 10.1 km/h 81% 0.0 mm
05:05 15.7 °C 13.0 °C 1018.0 hPa SSE 9.3 km/h 10.1 km/h 81% 0.0 mm
05:10 15.7 °C 13.0 °C 1018.0 hPa Calm   9.7 km/h 81% 0.0 mm
05:20 15.7 °C 13.0 °C 1018.0 hPa South 7.6 km/h 11.6 km/h 81% 0.0 mm
05:25 15.7 °C 13.0 °C 1018.0 hPa Calm   11.6 km/h 81% 0.0 mm
05:30 15.7 °C 13.0 °C 1018.0 hPa Calm   10.5 km/h 81% 0.0 mm
05:35 15.7 °C 13.0 °C 1018.0 hPa SSW 5.8 km/h 10.5 km/h 81% 0.0 mm
05:40 15.7 °C 13.0 °C 1018.0 hPa Calm   10.1 km/h 81% 0.0 mm
05:50 15.8 °C 13.0 °C 1018.0 hPa Calm   10.5 km/h 83% 0.0 mm
05:55 15.8 °C 13.0 °C 1018.0 hPa SSW 4.0 km/h 10.1 km/h 83% 0.0 mm
06:00 15.8 °C 13.0 °C 1018.0 hPa Calm   9.0 km/h 83% 0.0 mm
06:05 15.8 °C 13.0 °C 1018.0 hPa SW 5.8 km/h 9.7 km/h 83% 0.0 mm
06:10 15.8 °C 13.0 °C 1018.0 hPa Calm   9.7 km/h 82% 0.0 mm
06:20 15.8 °C 13.0 °C 1018.0 hPa SSW 9.3 km/h 9.3 km/h 83% 0.0 mm
06:25 15.8 °C 13.0 °C 1018.0 hPa South 5.0 km/h 10.5 km/h 83% 0.0 mm
06:30 15.9 °C 13.0 °C 1018.0 hPa SSW 5.8 km/h 10.5 km/h 84% 0.0 mm
06:35 15.9 °C 13.0 °C 1018.0 hPa South 6.9 km/h 11.9 km/h 84% 0.0 mm
06:40 15.9 °C 14.0 °C 1018.0 hPa SSW 4.7 km/h 11.9 km/h 86% 0.0 mm
06:50 16.0 °C 14.0 °C 1018.0 hPa SSW 10.5 km/h 11.6 km/h 87% 0.0 mm
06:55 16.0 °C 14.0 °C 1018.0 hPa South 5.5 km/h 11.6 km/h 87% 0.0 mm
07:00 16.0 °C 14.0 °C 1018.0 hPa South 9.0 km/h 12.2 km/h 87% 0.0 mm
07:05 16.0 °C 14.0 °C 1018.0 hPa SSW 6.9 km/h 12.2 km/h 87% 0.0 mm
07:10 16.0 °C 14.0 °C 1018.0 hPa SSW 8.7 km/h 16.3 km/h 88% 0.0 mm
07:20 16.0 °C 14.0 °C 1018.0 hPa Calm   13.0 km/h 88% 0.0 mm
07:25 16.0 °C 14.0 °C 1018.0 hPa SSW 9.0 km/h 13.0 km/h 88% 0.0 mm
07:30 16.0 °C 14.0 °C 1018.0 hPa SW 6.1 km/h 12.6 km/h 89% 0.0 mm
Données Historique de Météo Turbie

Mise a jour : 18/06/2018 07:27:12
Généré par Cumulus 1.9.4 (1099)